Time,TemperatureF,DewpointF,PressureIn,WindDirection,WindDirectionDegrees,WindSpeedMPH,WindSpeedGustMPH,Humidity,HourlyPrecipIn,Conditions,Clouds,dailyrainin,SoftwareType,DateUTC
2013-03-23 00:13:00,37.6,37.0,29.53,ESE,112,11.0,16.0,96,0.03,,,1.82,weatherlink.com 1.10,2013-03-23 00:13:00,
2013-03-23 00:28:00,37.9,37.0,29.53,SE,125,5.0,14.0,97,0.03,,,1.83,weatherlink.com 1.10,2013-03-23 00:28:00,
2013-03-23 00:43:00,37.5,37.0,29.53,SE,129,7.0,12.0,96,0.03,,,1.83,weatherlink.com 1.10,2013-03-23 00:43:00,
2013-03-23 00:58:00,37.3,37.0,29.54,SSE,147,4.0,17.0,97,0.03,,,1.84,weatherlink.com 1.10,2013-03-23 00:58:00,
2013-03-23 01:13:00,37.3,37.0,29.54,ESE,106,5.0,15.0,97,0.03,,,1.85,weatherlink.com 1.10,2013-03-23 01:13:00,
2013-03-23 01:28:00,37.1,36.0,29.55,East,94,4.0,12.0,96,0.02,,,1.85,weatherlink.com 1.10,2013-03-23 01:28:00,
2013-03-23 01:43:00,36.8,36.0,29.55,ESE,108,5.0,15.0,97,0.02,,,1.85,weatherlink.com 1.10,2013-03-23 01:43:00,
2013-03-23 01:58:00,36.7,36.0,29.56,East,85,7.0,12.0,97,0.02,,,1.86,weatherlink.com 1.10,2013-03-23 01:58:00,
2013-03-23 02:13:00,36.9,36.0,29.55,SE,129,4.0,11.0,97,0.01,,,1.86,weatherlink.com 1.10,2013-03-23 02:13:00,
2013-03-23 02:28:00,37.1,36.0,29.55,ESE,121,8.0,13.0,97,0.01,,,1.86,weatherlink.com 1.10,2013-03-23 02:28:00,
2013-03-23 02:43:00,37.1,36.0,29.55,East,101,4.0,11.0,97,0.01,,,0.00,weatherlink.com 1.10,2013-03-23 02:43:00,
2013-03-23 02:58:00,37.1,36.0,29.55,ESE,105,10.0,11.0,97,0.00,,,0.00,weatherlink.com 1.10,2013-03-23 02:58:00,
2013-03-23 03:13:00,37.1,36.0,29.55,ESE,112,11.0,11.0,97,0.00,,,0.00,weatherlink.com 1.10,2013-03-23 03:13:00,
2013-03-23 03:28:00,37.1,36.0,29.55,ESE,114,6.0,13.0,97,0.00,,,0.00,weatherlink.com 1.10,2013-03-23 03:28:00,
2013-03-23 03:43:00,37.1,36.0,29.55,ESE,117,6.0,15.0,97,0.01,,,0.01,weatherlink.com 1.10,2013-03-23 03:43:00,
2013-03-23 03:58:00,37.2,37.0,29.56,East,98,6.0,13.0,97,0.01,,,0.01,weatherlink.com 1.10,2013-03-23 03:58:00,
2013-03-23 04:13:00,37.2,37.0,29.56,ESE,113,6.0,14.0,97,0.01,,,0.01,weatherlink.com 1.10,2013-03-23 04:13:00,
2013-03-23 04:28:00,37.3,37.0,29.56,SE,129,5.0,13.0,97,0.01,,,0.01,weatherlink.com 1.10,2013-03-23 04:28:00,
2013-03-23 04:43:00,37.4,37.0,29.57,East,101,5.0,12.0,97,0.00,,,0.01,weatherlink.com 1.10,2013-03-23 04:43:00,
2013-03-23 04:58:00,37.5,37.0,29.57,ESE,114,4.0,10.0,97,0.00,,,0.01,weatherlink.com 1.10,2013-03-23 04:58:00,
2013-03-23 05:13:00,37.3,37.0,29.57,East,85,7.0,12.0,97,0.00,,,0.01,weatherlink.com 1.10,2013-03-23 05:13:00,
2013-03-23 05:28:00,37.3,37.0,29.57,East,100,9.0,12.0,97,0.00,,,0.01,weatherlink.com 1.10,2013-03-23 05:28:00,
2013-03-23 05:43:00,37.3,37.0,29.58,SE,138,7.0,12.0,97,0.00,,,0.01,weatherlink.com 1.10,2013-03-23 05:43:00,
2013-03-23 05:58:00,37.3,37.0,29.58,SE,131,3.0,14.0,97,0.00,,,0.01,weatherlink.com 1.10,2013-03-23 05:58:00,
2013-03-23 06:13:00,37.3,37.0,29.58,East,95,5.0,11.0,97,0.00,,,0.01,weatherlink.com 1.10,2013-03-23 06:13:00,
2013-03-23 06:28:00,37.4,36.0,29.59,ESE,111,11.0,12.0,96,0.00,,,0.01,weatherlink.com 1.10,2013-03-23 06:28:00,
2013-03-23 06:44:00,37.3,36.0,29.59,ESE,121,6.0,9.0,96,0.00,,,0.01,weatherlink.com 1.10,2013-03-23 06:44:00,
2013-03-23 06:59:00,37.4,36.0,29.59,ESE,105,8.0,13.0,96,0.00,,,0.01,weatherlink.com 1.10,2013-03-23 06:59:00,
2013-03-23 07:14:00,37.4,36.0,29.60,SE,128,5.0,11.0,96,0.00,,,0.01,weatherlink.com 1.10,2013-03-23 07:14:00,
2013-03-23 07:29:00,37.4,36.0,29.60,ESE,115,5.0,12.0,96,0.00,,,0.01,weatherlink.com 1.10,2013-03-23 07:29:00,
2013-03-23 07:44:00,37.5,37.0,29.60,SE,138,9.0,11.0,96,0.00,,,0.01,weatherlink.com 1.10,2013-03-23 07:44:00,
2013-03-23 07:59:00,37.3,36.0,29.60,ESE,102,5.0,16.0,96,0.00,,,0.01,weatherlink.com 1.10,2013-03-23 07:59:00,
2013-03-23 08:14:00,37.4,36.0,29.61,ESE,108,9.0,12.0,96,0.00,,,0.01,weatherlink.com 1.10,2013-03-23 08:14:00,
2013-03-23 08:29:00,37.4,36.0,29.61,ESE,103,6.0,14.0,96,0.00,,,0.01,weatherlink.com 1.10,2013-03-23 08:29:00,
2013-03-23 08:44:00,37.3,36.0,29.61,ESE,103,6.0,13.0,96,0.00,,,0.01,weatherlink.com 1.10,2013-03-23 08:44:00,
2013-03-23 08:59:00,37.3,36.0,29.61,ESE,108,8.0,11.0,96,0.00,,,0.01,weatherlink.com 1.10,2013-03-23 08:59:00,
2013-03-23 09:14:00,37.3,36.0,29.62,ESE,103,5.0,13.0,96,0.00,,,0.01,weatherlink.com 1.10,2013-03-23 09:14:00,
2013-03-23 09:29:00,37.3,37.0,29.62,ESE,115,7.0,10.0,97,0.00,,,0.01,weatherlink.com 1.10,2013-03-23 09:29:00,
2013-03-23 09:44:00,37.3,37.0,29.63,SE,146,3.0,14.0,97,0.01,,,0.02,weatherlink.com 1.10,2013-03-23 09:44:00,
2013-03-23 09:59:00,37.4,37.0,29.63,East,100,5.0,12.0,97,0.01,,,0.02,weatherlink.com 1.10,2013-03-23 09:59:00,
2013-03-23 10:14:00,37.2,36.0,29.63,East,100,4.0,16.0,96,0.01,,,0.02,weatherlink.com 1.10,2013-03-23 10:14:00,
2013-03-23 10:29:00,37.3,37.0,29.64,SSE,157,4.0,14.0,97,0.02,,,0.02,weatherlink.com 1.10,2013-03-23 10:29:00,
2013-03-23 10:44:00,37.3,36.0,29.64,ESE,114,12.0,16.0,96,0.01,,,0.02,weatherlink.com 1.10,2013-03-23 10:44:00,
2013-03-23 10:59:00,37.5,37.0,29.64,East,101,16.0,16.0,96,0.01,,,0.02,weatherlink.com 1.10,2013-03-23 10:59:00,
2013-03-23 11:14:00,37.7,36.0,29.65,SE,127,7.0,12.0,95,0.01,,,0.02,weatherlink.com 1.10,2013-03-23 11:14:00,
2013-03-23 11:29:00,37.7,36.0,29.65,ENE,74,3.0,16.0,94,0.00,,,0.02,weatherlink.com 1.10,2013-03-23 11:29:00,
2013-03-23 11:44:00,37.9,36.0,29.65,ESE,110,7.0,14.0,94,0.00,,,0.02,weatherlink.com 1.10,2013-03-23 11:44:00,
2013-03-23 11:59:00,37.8,36.0,29.66,ESE,113,10.0,14.0,93,0.00,,,0.02,weatherlink.com 1.10,2013-03-23 11:59:00,
2013-03-23 12:14:00,38.0,37.0,29.66,ESE,116,9.0,12.0,94,0.00,,,0.02,weatherlink.com 1.10,2013-03-23 12:14:00,
2013-03-23 12:29:00,38.1,36.0,29.66,ESE,122,7.0,18.0,92,0.00,,,0.02,weatherlink.com 1.10,2013-03-23 12:29:00,
2013-03-23 12:44:00,38.2,36.0,29.66,ESE,107,7.0,15.0,92,0.00,,,0.02,weatherlink.com 1.10,2013-03-23 12:44:00,
2013-03-23 12:59:00,38.4,36.0,29.66,East,89,6.0,12.0,90,0.00,,,0.02,weatherlink.com 1.10,2013-03-23 12:59:00,
2013-03-23 13:14:00,38.5,36.0,29.66,ESE,108,11.0,13.0,89,0.00,,,0.02,weatherlink.com 1.10,2013-03-23 13:14:00,
2013-03-23 13:29:00,38.5,35.0,29.66,ESE,114,6.0,14.0,88,0.00,,,0.02,weatherlink.com 1.10,2013-03-23 13:29:00,
2013-03-23 13:44:00,38.6,35.0,29.66,ESE,110,9.0,13.0,88,0.00,,,0.02,weatherlink.com 1.10,2013-03-23 13:44:00,
2013-03-23 13:59:00,38.6,35.0,29.66,ESE,121,5.0,13.0,88,0.00,,,0.02,weatherlink.com 1.10,2013-03-23 13:59:00,
2013-03-23 14:14:00,38.6,35.0,29.66,ESE,110,6.0,15.0,87,0.00,,,0.02,weatherlink.com 1.10,2013-03-23 14:14:00,
2013-03-23 14:29:00,38.6,35.0,29.67,ESE,116,8.0,13.0,86,0.00,,,0.02,weatherlink.com 1.10,2013-03-23 14:29:00,
2013-03-23 14:44:00,38.5,35.0,29.67,SE,124,10.0,16.0,86,0.00,,,0.02,weatherlink.com 1.10,2013-03-23 14:44:00,
2013-03-23 14:59:00,38.5,35.0,29.67,SE,124,6.0,12.0,86,0.00,,,0.02,weatherlink.com 1.10,2013-03-23 14:59:00,
2013-03-23 15:14:00,38.4,34.0,29.67,ESE,118,8.0,11.0,85,0.00,,,0.02,weatherlink.com 1.10,2013-03-23 15:14:00,
2013-03-23 15:29:00,38.5,34.0,29.67,East,94,3.0,12.0,85,0.00,,,0.02,weatherlink.com 1.10,2013-03-23 15:29:00,
2013-03-23 15:44:00,38.6,34.0,29.68,ESE,104,9.0,13.0,84,0.00,,,0.02,weatherlink.com 1.10,2013-03-23 15:44:00,
2013-03-23 15:59:00,38.8,34.0,29.68,ESE,108,8.0,12.0,84,0.00,,,0.02,weatherlink.com 1.10,2013-03-23 15:59:00,
2013-03-23 16:15:00,38.8,34.0,29.68,ESE,117,4.0,10.0,84,0.00,,,0.02,weatherlink.com 1.10,2013-03-23 16:15:00,
2013-03-23 16:30:00,38.8,34.0,29.68,ESE,108,5.0,12.0,84,0.00,,,0.02,weatherlink.com 1.10,2013-03-23 16:30:00,
2013-03-23 16:45:00,38.6,35.0,29.68,SE,144,5.0,12.0,85,0.00,,,0.02,weatherlink.com 1.10,2013-03-23 16:45:00,
2013-03-23 17:00:00,38.5,34.0,29.68,East,101,10.0,12.0,85,0.00,,,0.02,weatherlink.com 1.10,2013-03-23 17:00:00,
2013-03-23 17:15:00,38.5,34.0,29.69,ESE,112,4.0,13.0,83,0.00,,,0.02,weatherlink.com 1.10,2013-03-23 17:15:00,
2013-03-23 17:30:00,38.5,34.0,29.69,East,98,8.0,9.0,84,0.00,,,0.02,weatherlink.com 1.10,2013-03-23 17:30:00,
2013-03-23 17:45:00,38.3,35.0,29.70,East,101,6.0,16.0,87,0.00,,,0.02,weatherlink.com 1.10,2013-03-23 17:45:00,
2013-03-23 18:00:00,38.2,35.0,29.70,East,82,6.0,13.0,87,0.00,,,0.02,weatherlink.com 1.10,2013-03-23 18:00:00,
2013-03-23 18:15:00,38.1,35.0,29.71,ESE,116,7.0,14.0,87,0.00,,,0.02,weatherlink.com 1.10,2013-03-23 18:15:00,
2013-03-23 18:30:00,37.9,34.0,29.71,ESE,121,8.0,11.0,87,0.00,,,0.02,weatherlink.com 1.10,2013-03-23 18:30:00,
2013-03-23 18:45:00,37.8,34.0,29.72,East,81,5.0,17.0,87,0.00,,,0.02,weatherlink.com 1.10,2013-03-23 18:45:00,
2013-03-23 19:00:00,37.7,34.0,29.72,East,101,5.0,12.0,87,0.00,,,0.02,weatherlink.com 1.10,2013-03-23 19:00:00,
2013-03-23 19:15:00,37.8,34.0,29.72,ENE,61,3.0,11.0,87,0.00,,,0.02,weatherlink.com 1.10,2013-03-23 19:15:00,
2013-03-23 19:30:00,37.8,34.0,29.73,ESE,120,3.0,16.0,87,0.00,,,0.02,weatherlink.com 1.10,2013-03-23 19:30:00,
2013-03-23 19:45:00,37.7,34.0,29.73,SSE,166,5.0,16.0,87,0.00,,,0.02,weatherlink.com 1.10,2013-03-23 19:45:00,
2013-03-23 20:00:00,37.6,34.0,29.74,ESE,115,8.0,13.0,87,0.00,,,0.02,weatherlink.com 1.10,2013-03-23 20:00:00,
2013-03-23 20:15:00,37.5,34.0,29.73,East,91,10.0,15.0,87,0.00,,,0.02,weatherlink.com 1.10,2013-03-23 20:15:00,
2013-03-23 20:30:00,37.3,34.0,29.74,East,101,5.0,12.0,87,0.00,,,0.02,weatherlink.com 1.10,2013-03-23 20:30:00,
2013-03-23 20:45:00,37.2,33.0,29.74,SE,132,8.0,15.0,86,0.00,,,0.02,weatherlink.com 1.10,2013-03-23 20:45:00,
2013-03-23 21:00:00,37.1,33.0,29.74,ESE,104,5.0,15.0,86,0.00,,,0.02,weatherlink.com 1.10,2013-03-23 21:00:00,
2013-03-23 21:15:00,37.0,33.0,29.75,East,87,7.0,13.0,86,0.00,,,0.02,weatherlink.com 1.10,2013-03-23 21:15:00,
2013-03-23 21:30:00,36.9,33.0,29.75,SE,129,6.0,14.0,86,0.00,,,0.02,weatherlink.com 1.10,2013-03-23 21:30:00,
2013-03-23 21:45:00,37.0,33.0,29.75,ESE,121,12.0,18.0,86,0.00,,,0.02,weatherlink.com 1.10,2013-03-23 21:45:00,
2013-03-23 22:00:00,36.9,33.0,29.75,ESE,113,6.0,15.0,86,0.00,,,0.02,weatherlink.com 1.10,2013-03-23 22:00:00,
2013-03-23 22:15:00,36.8,33.0,29.75,SE,124,8.0,14.0,86,0.00,,,0.02,weatherlink.com 1.10,2013-03-23 22:15:00,
2013-03-23 22:30:00,36.7,33.0,29.76,East,100,5.0,16.0,86,0.00,,,0.02,weatherlink.com 1.10,2013-03-23 22:30:00,
2013-03-23 22:45:00,36.7,33.0,29.76,ENE,69,13.0,15.0,86,0.00,,,0.02,weatherlink.com 1.10,2013-03-23 22:45:00,
2013-03-23 23:00:00,36.6,33.0,29.76,ESE,104,4.0,11.0,86,0.00,,,0.02,weatherlink.com 1.10,2013-03-23 23:00:00,
2013-03-23 23:15:00,36.5,33.0,29.76,ESE,120,7.0,13.0,86,0.00,,,0.02,weatherlink.com 1.10,2013-03-23 23:15:00,
2013-03-23 23:30:00,36.4,33.0,29.76,East,99,7.0,13.0,86,0.00,,,0.02,weatherlink.com 1.10,2013-03-23 23:30:00,
2013-03-23 23:45:00,36.4,32.0,29.76,East,99,13.0,13.0,85,0.00,,,0.02,weatherlink.com 1.10,2013-03-23 23:45:00,